RJAA

Tokyo Narita Airport

Airport
ICAO code
RJAA
IATA Code
NRT
Summary
ICAO Region
APAC
ICAO Territory
Location

Narita, Chiba Prefecture

Serving
Tokyo
Elevation
135 ft
Coordinates
35° 46' 25" N , 140° 23' 18" E
KCC
Metar
RJAA 220200Z 02018KT 3500 -RA BR FEW005 BKN007 06/05 Q1018 NOSIG

Also know as Tokyo Narita Airport or Narita International Airport, Narita was formerly the major international airport serving Tokyo until Haneda reopened to intercontinental traffic. Narita airport is located 57.5 km east of Tokyo and 7 km east-southeast of the city of Narita.

Climatology

Humid subtropical climate (Köppen climate classification Cfa).

Runways

Designator Length Width Surface Rops
16L/34R 2180 60 ASP Yes/Yes
16R/34L 4000 60 ASP Yes/Yes

SKYbrary Partners:

Safety knowledge contributed by: